OBJECT P (43771 NORAD) Tracking and Keplerian Element Data

This shows tracking and keplerian element data for the satellite.

Feedback or suggestion? Click here.




ElementValue
Catalog43771
NameOBJECT P
Epoch Orbit655
Epoch Day16.66843854
Epoch Year2019
RAAN90.3669
Inclination97.7636
Eccentricity0.0016042
Argument of Perigee121.9449
Mean Anonmoly238.3334
Mean Motion14.94666228
Decay Rate4.22E-06
L11 43771U 18099P 19016.66843854 .00000422 00000-0 44187-4 0 9996
L22 43771 97.7636 90.3669 0016042 121.9449 238.3334 14.94666228 6558

Live tracking and technical data element details for OBJECT P (NORAD 43771). OBJECT P can be tracked NOW for your location showing map with azimuth and elevation plus other details from your city location.

Track the satellite on the map from your city or location and see movement details for azimuth, elevation, latitude, longitude, range, height, and movement on the map or in text.







IsCatalogInMostPopularTable: catalog: 43771, numindb: 19
Update: records affected: 1



GetName: 43771 OBJECT P

Hit Count: updated at: Fri, 18 Jan 2019 22:31:11 GMT